RH
83 38 33 44 40 35 30 33 42 39 42 58 66 74 78 99 100 93 90 99 84 81 99 98 91 91 99 99 100 100 100 100
91 76 41 42 53 43 35 28 47 40 34 41 43 55 63 71 89 92 100 69 62 56 48 81 71 60 71 84 87 99 99 100
86 100 94 56 44 51 79 47 30 34 42 38 44 39 51 79 95 100 100 86 57 39 28 50 80 80 85 90 79 95 100 100
43 51 98 87 100 79 66 76 48 32 31 35 40 51 62 76 100 100 99 100 99 54 31 30 40 65 93 100 100 100 98 91
32 42 59 100 93 96 88 75 68 40 48 86 79 65 79 69 90 100 92 89 100 76 39 30 27 61 100 95 98 100 94 94
47 54 64 75 100 100 77 90 100 100 83 68 90 85 86 99 100 100 100 100 100 94 62 45 35 56 89 95 100 100 99 100
66 61 74 86 70 69 70 58 74 88 96 92 100 100 78 88 97 100 100 100 100 100 79 70 52 48 45 59 86 87 78 85
40 69 70 40 49 55 55 48 62 70 75 84 100 100 87 96 100 100 100 100 100 100 100 97 78 70 68 71 85 82 71 77
94 75 67 68 71 62 53 43 56 69 88 73 79 71 100 100 100 100 84 95 100 100 100 100 100 90 88 85 81 83 85 81
64 97 68 51 46 90 91 78 30 95 100 98 100 100 100 100 100 100 100 98 100 100 100 100 100 100 100 100 100 100 96 100
46 52 52 46 39 68 100 97 58 64 100 100 100 98 100 100 100 100 89 100 100 100 96 100 100 100 100 100 100 100 100 100
39 27 37 37 40 80 80 97 46 47 100 100 99 100 100 100 100 94 100 99 100 100 100 100 100 100 100 100 100 100 100 100
16 16 19 22 24 100 100 96 100 100 98 100 100 100 100 100 100 100 100 100 100 100 100 100 100 100 100 100 100 92 82 98
11 12 16 15 24 50 100 74 100 100 99 100 100 100 100 100 100 100 93 96 100 100 100 100 100 100 100 100 100 100 100 100
11 11 14 14 15 17 79 95 100 100 100 100 96 98 100 88 100 83 72 82 100 100 100 100 100 100 100 100 100 100 100 100
13 14 13 16 16 16 36 78 100 100 96 100 100 100 100 100 98 100 83 88 85 100 100 100 100 100 100 100 100 100 100 99
14 16 16 17 20 19 27 44 88 100 100 100 100 100 100 100 100 100 71 66 73 95 100 100 100 100 100 100 100 100 100 100
15 18 20 21 21 25 31 50 56 91 100 100 100 100 100 100 100 100 100 92 68 100 100 100 100 100 100 100 100 100 100 100
16 16 17 17 18 20 30 50 52 74 98 100 100 100 94 100 100 100 100 100 100 100 89 100 97 100 96 99 89 87 100 100
Wind_Speed
62 64 59 61 60 55 55 52 51 49 47 48 49 48 50 48 48 47 47 50 50 48 52 54 54 57 58 58 55 54 53 53
66 64 67 61 53 62 63 57 56 54 51 51 51 51 51 54 52 49 53 52 52 52 55 55 55 55 57 58 56 53 53 55
63 61 61 57 58 56 64 60 53 59 58 56 51 50 51 54 53 51 55 58 55 52 50 55 55 53 53 54 56 55 54 55
72 67 59 61 57 56 62 68 61 54 58 61 58 54 54 53 56 59 59 60 62 58 53 52 55 54 51 51 52 55 57 58
71 72 66 62 63 63 64 67 66 54 49 61 63 59 56 58 60 62 63 62 64 63 58 54 51 54 53 54 53 54 55 54
66 70 71 70 66 62 67 68 68 68 64 64 63 63 57 55 55 59 65 66 66 66 61 57 53 56 57 54 55 56 54 54
79 70 73 72 69 69 66 73 69 69 66 65 67 65 66 66 65 63 62 65 68 68 66 62 59 58 58 57 58 58 58 59
92 105 101 89 81 86 89 79 76 69 71 68 67 66 65 69 69 69 68 68 66 67 67 66 63 61 62 62 64 65 64 64
106 108 111 112 108 106 84 89 64 70 59 62 69 57 58 63 64 68 73 73 71 66 68 69 66 65 69 69 68 67 67 66
125 132 119 107 97 82 81 74 71 49 51 71 69 81 72 65 60 66 65 71 71 69 67 66 67 67 69 68 72 68 69 65
135 120 113 105 91 78 74 78 68 55 51 69 76 69 79 87 86 79 75 74 75 76 74 69 68 70 72 74 73 69 60 70
127 105 93 89 76 73 78 89 58 68 76 70 73 74 89 88 85 82 88 90 83 79 76 74 73 74 74 75 74 73 75 78
92 81 76 75 76 78 88 85 72 71 78 93 93 92 82 88 88 98 100 95 95 89 82 79 80 80 79 80 82 83 86 85
80 73 66 68 75 82 96 82 82 81 88 86 90 101 98 102 109 104 103 98 94 96 93 90 89 88 87 87 85 86 85 85
74 74 67 66 74 79 96 90 95 92 94 103 103 103 106 107 100 106 107 102 97 97 98 97 96 94 93 94 94 94 94 94
66 67 66 64 70 76 91 101 101 94 105 108 110 115 113 108 104 106 105 105 106 102 102 102 100 100 99 98 99 99 99 100
65 64 64 62 66 74 90 102 110 105 102 114 117 116 106 102 111 116 113 104 100 104 105 105 106 105 107 107 106 106 107 107
62 63 64 68 69 74 86 102 110 114 111 117 119 110 109 110 116 116 114 116 107 104 107 108 108 108 113 113 112 111 111 112
65 66 67 71 73 75 83 97 105 119 119 126 127 120 119 114 122 123 120 122 118 116 115 113 111 110 109 109 113 112 113 115
Wind_Direction
279 280 284 292 298 290 290 285 273 270 271 264 263 264 265 268 267 267 267 263 266 270 270 270 269 265 266 268 268 269 270 271
283 284 283 286 284 287 286 285 277 270 266 267 264 261 263 267 267 266 268 265 264 265 269 271 271 270 267 268 269 271 272 271
276 275 279 283 279 278 275 280 288 279 270 267 266 265 264 264 265 259 263 264 264 268 273 271 272 271 269 266 266 271 273 272
283 278 267 273 269 266 268 274 280 287 278 271 267 264 260 263 263 261 261 265 265 267 266 268 269 270 269 268 267 268 270 271
283 281 271 262 263 267 267 266 271 283 276 272 269 267 267 265 261 260 262 261 262 265 265 268 268 269 269 268 271 268 266 268
279 274 271 264 257 261 264 264 267 271 275 275 271 269 265 264 263 264 261 260 262 264 264 266 266 266 266 269 269 269 268 267
283 272 271 269 265 266 262 266 267 264 267 269 271 271 270 268 266 266 265 262 261 262 264 264 264 265 265 266 267 267 267 269
291 294 291 286 274 283 273 259 263 265 263 263 265 268 269 269 266 267 266 262 260 259 260 264 266 265 266 265 265 266 269 269
282 285 287 287 287 289 284 258 262 268 264 262 262 256 265 259 261 263 260 261 260 258 260 261 263 264 264 265 267 268 269 271
287 291 289 283 281 278 280 272 259 248 255 271 262 254 249 258 248 250 251 253 256 258 258 259 262 265 266 268 267 266 268 270
288 285 283 281 278 264 241 261 260 229 234 249 241 248 251 250 255 249 249 255 258 260 262 258 259 260 262 264 267 266 264 263
283 280 275 275 266 248 246 239 235 218 217 232 244 252 253 248 244 249 256 258 259 260 260 257 256 256 257 259 261 261 262 262
277 273 267 263 256 235 234 237 220 226 228 236 238 239 241 246 246 248 253 255 257 258 256 256 255 254 254 255 257 258 261 262
273 268 259 251 242 233 229 232 215 221 227 234 233 238 242 248 251 252 252 251 253 255 257 255 254 254 255 254 255 256 257 259
268 262 255 251 240 233 226 221 214 215 220 222 232 235 240 243 248 250 250 252 249 250 252 253 254 254 254 255 254 255 257 259
267 264 259 251 240 235 223 216 216 217 219 222 227 233 236 242 243 246 248 250 252 251 251 251 252 253 254 256 257 257 258 260
272 266 261 255 245 237 229 222 216 217 222 224 227 230 232 238 242 243 246 246 248 249 249 251 251 252 253 254 255 257 259 262
267 264 258 254 246 237 232 226 221 218 221 222 224 228 230 234 237 240 244 246 250 247 247 248 250 251 253 255 255 258 260 262
264 260 256 252 248 243 236 231 226 222 223 223 226 228 231 233 234 237 240 243 245 246 248 249 251 252 255 258 260 259 261 263